Station PTWW1 - 9444900 - Port Townsend, WA Image indicating link to RSS feed of recent meteorological observations for station PTWW1


Conditions at PTWW1 as of
(1:00 am PDT)
0800 GMT on 06/21/2024:
     

Click on the graph icon in the table below to see a time series plot of the last five days of that observation.

5-day plot - Wind Direction Wind Direction (WDIR):WNW ( 290 deg true )
5-day plot - Wind Speed Wind Speed (WSPD): 9.9 kts
5-day plot - Wind Gust Wind Gust (GST): 12.0 kts
5-day plot - Atmospheric Pressure Atmospheric Pressure (PRES):29.98 in
5-day plot - Pressure Tendency Pressure Tendency (PTDY):-0.01 in ( Falling )
5-day plot - Air Temperature Air Temperature (ATMP): 60.8 °F
5-day plot - Water Temperature Water Temperature (WTMP): 52.0 °F
5-day plot - Wind Speed at 10 Meters Wind Speed at 10 meters (WSPD10M): 9.7 kts
5-day plot - Wind Speed at 20 Meters Wind Speed at 20 meters (WSPD20M): 11.7 kts
5-day plot -  Wind Speed, Wind Gust and Atmospheric Pressure Combined plot of Wind Speed, Gust, and Air Pressure
NOS Water Level Observation Network Water Level
Previous observations
TIME
(PDT)
5-day plot - Wind Direction
WDIR
 
5-day plot - Wind Speed
WSPD
kts
5-day plot - Wind Gust
GST
kts
5-day plot - Wave Height
WVHT
ft
5-day plot - Dominant Wave Period
DPD
sec
5-day plot - Average Wave Period
APD
sec
5-day plot - Mean Wave Direction
MWD
 
5-day plot - Atmospheric Pressure
PRES
in
5-day plot - Pressure Tendency
PTDY
in
5-day plot - Air Temperature
ATMP
°F
5-day plot - Water Temperature
WTMP
°F
5-day plot - Dew Point
DEWP
°F
5-day plot - Salinity
SAL
psu
5-day plot - Visibility
VIS
nmi
5-day plot - Tide (above MLLW)
TIDE
ft
2024-06-21 12:54 amWNW 8.9 12.0----29.98- 60.8 52.0----
2024-06-21 12:48 amWNW 8.9 11.1----29.98-------
2024-06-21 12:42 amWNW 8.0 9.9----29.98- 61.5 52.0----
2024-06-21 12:36 amWNW 8.0 11.1----29.98- 61.7 52.0----
2024-06-21 12:30 amWNW 8.0 9.9----29.98- 62.4 52.0----
2024-06-21 12:24 am W 8.0 9.9----29.98- 63.0 52.0----
2024-06-21 12:18 amWNW 8.0 8.9----29.98- 63.9 52.0----
2024-06-21 12:12 amWNW 6.0 8.0----29.98- 64.2 52.0----
2024-06-21 12:06 am W 7.0 8.9----29.98- 64.9 52.0----
2024-06-21 12:00 am W 6.0 9.9----29.98+0.00 65.7 51.8----
2024-06-20 11:54 pm W 7.0 9.9----29.98- 65.8 51.8----
2024-06-20 11:48 pm W 7.0 8.9----29.98- 65.8 51.8----
2024-06-20 11:42 pm W 7.0 11.1----29.98- 65.8 51.8----
2024-06-20 11:36 pm W 7.0 9.9----29.99- 66.2 51.8----
2024-06-20 11:30 pm W 6.0 11.1----29.99- 66.0 51.8----
2024-06-20 11:24 pm W 7.0 11.1----29.99- 66.4 51.8----
2024-06-20 11:18 pm W 7.0 8.9----29.99- 66.4 51.8----
2024-06-20 11:12 pmWNW 6.0 9.9----29.99- 66.6 51.8----
2024-06-20 11:06 pm W 6.0 8.9----29.99- 66.7 51.6----
2024-06-20 11:00 pm W 7.0 8.9----29.98+0.00 66.6 51.6----
2024-06-20 10:54 pmWNW 5.1 8.9----29.99- 66.6 51.6----
2024-06-20 10:48 pm W 5.1 8.0----29.99- 66.4 51.6----
2024-06-20 10:42 pmWNW 5.1 7.0----29.99- 66.6 51.6----
2024-06-20 10:36 pmWNW 5.1 8.9----29.99- 66.6 51.4----
2024-06-20 10:30 pmWNW 5.1 8.9----29.99- 66.4 51.4----
2024-06-20 10:24 pmWNW 5.1 11.1----29.99- 66.4 51.4----
2024-06-20 10:18 pm W 7.0 11.1----29.99-------
2024-06-20 10:12 pm W 7.0 11.1----29.99- 66.2 51.4----
2024-06-20 10:06 pm W 5.1 8.9----29.99- 66.2 51.4----
2024-06-20 10:00 pm W 5.1 11.1----29.99+0.01 66.4 51.4----
2024-06-20 09:54 pm W 6.0 11.1----29.99- 66.4 51.4----
2024-06-20 09:48 pm W 7.0 11.1----29.99- 66.6 51.4----
2024-06-20 09:42 pm W 8.0 9.9----29.99- 66.6 51.4----
2024-06-20 09:36 pm W 7.0 12.0----29.99- 66.7 51.6----
2024-06-20 09:30 pm W 6.0 11.1----29.99- 66.9 51.6----
2024-06-20 09:24 pm W 8.9 12.0----29.98- 67.1 51.6----
2024-06-20 09:18 pm W 6.0 9.9----29.98-- 51.6----
2024-06-20 09:12 pm W 7.0 12.0----29.98- 67.5 51.6----
2024-06-20 09:06 pm W 6.0 9.9----29.98- 67.6 51.6----
2024-06-20 09:00 pm W 7.0 9.9----29.98+0.00 67.6 51.4----
2024-06-20 08:54 pm W 5.1 11.1----29.98- 67.8 51.4----
2024-06-20 08:48 pm W 5.1 9.9----29.98-- 51.3----
2024-06-20 08:42 pmWSW 6.0 8.9----29.98- 68.4 51.1----
2024-06-20 08:36 pm W 6.0 9.9----29.98- 68.5 50.7----
2024-06-20 08:30 pm W 5.1 8.9----29.98- 68.7 50.7----
2024-06-20 08:24 pm W 4.1 8.9----29.98- 69.1 50.7----
2024-06-20 08:18 pm W 4.1 8.9----29.98-------
2024-06-20 08:12 pmWSW 5.1 9.9----29.98- 69.3 50.7----
2024-06-20 08:06 pm W 5.1 8.0----29.98- 69.6 50.7----
2024-06-20 08:00 pm W 5.1 8.9----29.98-0.01 69.6 50.7----
2024-06-20 07:54 pm W 7.0 8.9----29.98- 69.4 50.7----
2024-06-20 07:48 pm W 7.0 8.9----29.98- 69.6 50.7----
2024-06-20 07:42 pm W 7.0 8.9----29.98- 69.4 50.5----
2024-06-20 07:36 pm W 8.9 11.1----29.98- 69.4 50.5----
2024-06-20 07:30 pm W 7.0 11.1----29.98- 70.2 50.5----
2024-06-20 07:24 pm W 7.0 9.9----29.98- 70.3 50.5----
2024-06-20 07:18 pm W 7.0 8.9----29.98-- 50.5----
2024-06-20 07:12 pm W 7.0 8.9----29.98- 70.5 50.5----
2024-06-20 07:06 pmWSW 6.0 8.9----29.98- 71.4 50.7----
2024-06-20 07:00 pmWSW 6.0 8.9----29.98-0.02 72.5 50.7----
2024-06-20 06:54 pmWSW 7.0 9.9----29.98- 72.9 50.9----
2024-06-20 06:48 pm W 8.0 11.1----29.98- 73.2 50.9----
2024-06-20 06:42 pm W 7.0 9.9----29.98- 74.1 50.9----
2024-06-20 06:36 pmWSW 6.0 11.1----29.98- 74.3 50.9----
2024-06-20 06:30 pmWSW 5.1 9.9----29.98- 75.2 51.1----
2024-06-20 06:24 pmWSW 6.0 8.9----29.98- 75.2 51.1----
2024-06-20 06:18 pmWSW 8.0 9.9----29.98-- 51.1----
2024-06-20 06:12 pmWSW 6.0 8.0----29.98- 75.7 51.3----
2024-06-20 06:06 pmWNW 5.1 8.0----29.98- 76.8 51.3----
2024-06-20 06:00 pm W 5.1 7.0----29.98-0.03 76.3 51.3----
2024-06-20 05:54 pm W 4.1 8.0----29.98- 76.6 51.3----
2024-06-20 05:48 pm W 6.0 8.9----29.98-- 51.4----
2024-06-20 05:42 pm W 7.0 9.9----29.99- 75.4 51.4----
2024-06-20 05:36 pm W 5.1 8.0----29.99- 76.5 51.4----
2024-06-20 05:30 pm W 5.1 11.1----29.99- 76.1 51.4----
2024-06-20 05:24 pm W 7.0 8.9----29.99- 75.6 51.4----
2024-06-20 05:18 pm W 7.0 9.9----29.99- 75.7 51.6----
2024-06-20 05:12 pm W 7.0 9.9----29.99- 75.6 51.6----
2024-06-20 05:06 pmWSW 8.0 9.9----29.99- 75.2 51.6----
2024-06-20 05:00 pm W 7.0 8.9----30.00-0.03 75.4 51.6----
2024-06-20 04:54 pm W 7.0 12.0----30.00- 74.8 51.8----
2024-06-20 04:48 pmWSW 8.9 9.9----30.00- 74.5 51.8----
2024-06-20 04:42 pm W 5.1 9.9----30.00- 75.6 51.8----
2024-06-20 04:36 pmWNW 6.0 11.1----30.00- 75.2 52.0----
2024-06-20 04:30 pm W 7.0 11.1----30.00- 74.8 52.0----
2024-06-20 04:24 pm W 7.0 11.1----30.00- 74.5 52.2----
2024-06-20 04:18 pmWNW 7.0 9.9----30.00-------
2024-06-20 04:12 pmWNW 8.0 11.1----30.00- 74.5 52.5----
2024-06-20 04:06 pmWNW 6.0 9.9----30.00- 74.7 52.7----
2024-06-20 04:00 pmWSW 5.1 8.9----30.00-0.04 73.9 52.9----
2024-06-20 03:54 pm W 7.0 11.1----30.01- 74.1 52.9----
2024-06-20 03:48 pm W 8.9 11.1----30.01- 73.0 53.1----
2024-06-20 03:42 pm W 7.0 12.0----30.01- 73.8 53.1----
2024-06-20 03:36 pm NW 7.0 9.9----30.01- 74.1 53.1----
2024-06-20 03:30 pmWNW 4.1 11.1----30.01-- 53.1----
2024-06-20 03:24 pmWNW 8.9 13.0----30.01-- 53.1----
2024-06-20 03:18 pm W 6.0 12.0----30.01-------
2024-06-20 03:12 pm W 8.0 9.9----30.01-------
2024-06-20 03:06 pm W 6.0 9.9----30.01-------
2024-06-20 03:00 pm W 7.0 11.1----30.01-0.04 73.0 52.2----
2024-06-20 02:54 pmWNW 6.0 9.9----30.01- 72.9 52.2----
2024-06-20 02:48 pm W 6.0 9.9----30.02- 72.3 52.2----
2024-06-20 02:42 pm W 7.0 8.9----30.02- 72.1 52.2----
2024-06-20 02:36 pm W 6.0 9.9----30.02- 72.0 52.2----
2024-06-20 02:30 pm W 6.0 9.9----30.02- 71.8 52.2----
2024-06-20 02:24 pm W 7.0 8.9----30.02- 71.4 52.2----
2024-06-20 02:18 pmWNW 4.1 8.0----30.02-- 52.2----
2024-06-20 02:12 pmWNW 7.0 8.9----30.02- 71.2 52.0----
2024-06-20 02:06 pm NW 7.0 9.9----30.03- 72.5 52.0----
2024-06-20 02:00 pm NW 6.0 9.9----30.03-0.03 71.2 52.0----
2024-06-20 01:54 pmWNW 6.0 8.9----30.03- 70.9 51.6----
2024-06-20 01:48 pm NW 7.0 9.9----30.03-- 51.4----
2024-06-20 01:42 pm NW 7.0 9.9----30.03- 70.7 51.6----
2024-06-20 01:36 pm NW 5.1 9.9----30.03- 70.9 51.6----
2024-06-20 01:30 pmWNW 7.0 8.9----30.03- 68.9 51.8----
2024-06-20 01:24 pmWNW 6.0 9.9----30.03- 69.4 52.0----
2024-06-20 01:18 pmWNW 7.0 9.9----30.04- 69.1 52.9----
2024-06-20 01:12 pmWNW 6.0 11.1----30.04- 68.9 53.6----
2024-06-20 01:06 pmWNW 7.0 8.9----30.04- 68.5 53.6----
2024-06-20 01:00 pmWNW 6.0 8.9----30.04-0.01 68.9 53.8----
2024-06-20 12:54 pm NW 8.0 13.0----30.04- 68.7 53.8----
2024-06-20 12:48 pmWNW 7.0 11.1----30.05-- 53.6----
2024-06-20 12:42 pmWNW 7.0 9.9----30.05- 68.9 53.6----
2024-06-20 12:36 pm NW 5.1 9.9----30.05- 69.4 53.6----
2024-06-20 12:30 pm NW 2.9 8.0----30.05-- 53.6----
2024-06-20 12:24 pmWNW 6.0 11.1----30.05-- 53.6----
2024-06-20 12:18 pm NW 7.0 11.1----30.05- 68.0 53.8----
2024-06-20 12:12 pm NW 7.0 11.1----30.05- 68.2 53.8----
2024-06-20 12:06 pmWNW 7.0 11.1----30.05- 67.5 53.8----
2024-06-20 12:00 pm NW 8.0 13.0----30.05-0.01 68.2 54.0----
2024-06-20 11:54 amWNW 4.1 11.1----30.05- 67.1 54.1----
2024-06-20 11:48 amWNW 8.0 11.1----30.05- 66.2 54.1----
2024-06-20 11:42 am NW 6.0 9.9----30.05- 67.3 55.2----
2024-06-20 11:36 am NW 6.0 8.9----30.05- 67.1 55.2----
2024-06-20 11:30 amWNW 7.0 11.1----30.05- 66.2 55.4----
2024-06-20 11:24 am NW 5.1 8.0----30.05- 67.3 55.4----
2024-06-20 11:18 am W 6.0 9.9----30.05- 66.4 55.4----
2024-06-20 11:12 amWNW 7.0 11.1----30.06- 66.4 55.4----
2024-06-20 11:06 amWNW 5.1 9.9----30.06- 66.0 55.2----
2024-06-20 11:00 amWNW 8.0 9.9----30.06+0.00 65.1 55.2----
2024-06-20 10:54 am W 7.0 12.0----30.06- 64.9 55.0----
2024-06-20 10:48 amWNW 8.9 12.0----30.06-- 55.0----
2024-06-20 10:42 amWNW 8.0 11.1----30.06- 64.9 54.9----
2024-06-20 10:36 am W 7.0 12.0----30.06- 64.9 54.5----
2024-06-20 10:30 amWNW 7.0 9.9----30.06- 65.3 54.1----
2024-06-20 10:24 am W 5.1 11.1----30.06- 65.8 53.6----
2024-06-20 10:18 amWNW 7.0 11.1----30.06- 64.4 52.9----
2024-06-20 10:12 am W 8.0 11.1----30.06- 64.2 52.9----
2024-06-20 10:06 amWNW 6.0 11.1----30.06- 64.9 52.7----
2024-06-20 10:00 amWNW 8.0 9.9----30.06+0.01 64.2 52.9----
2024-06-20 09:54 am W 7.0 9.9----30.06- 63.7 53.1----
2024-06-20 09:48 amWNW 7.0 11.1----30.06- 63.5 53.1----
2024-06-20 09:42 amWNW 6.0 11.1----30.06- 63.3 53.1----
2024-06-20 09:36 amWNW 4.1 8.0----30.06- 64.2 52.9----
2024-06-20 09:30 amWNW 4.1 8.9----30.06- 63.9 52.5----
2024-06-20 09:24 am NW 6.0 9.9----30.06- 63.5 52.3----
2024-06-20 09:18 amWNW 5.1 9.9----30.06-- 52.2----
2024-06-20 09:12 amWNW 7.0 9.9----30.06- 62.8 52.2----
2024-06-20 09:06 amWNW 6.0 8.9----30.06- 62.8 52.2----
2024-06-20 09:00 amWNW 8.0 9.9----30.06+0.02 63.0 52.2----
2024-06-20 08:54 amWNW 7.0 9.9----30.06- 63.0 52.2----
2024-06-20 08:48 am W 5.1 9.9----30.06- 63.1 52.2----
2024-06-20 08:42 amWNW 5.1 8.9----30.06- 62.8 52.2----
2024-06-20 08:36 amWNW 5.1 8.9----30.06- 62.6 52.2----
2024-06-20 08:30 amWNW 5.1 9.9----30.06- 62.4 52.2----
2024-06-20 08:24 am W 6.0 9.9----30.06- 62.1 52.2----
2024-06-20 08:18 amWNW 6.0 8.9----30.06-- 52.2----
2024-06-20 08:12 amWNW 7.0 8.9----30.05- 62.4 52.0----
2024-06-20 08:06 am W 5.1 6.0----30.05- 63.1 52.0----
2024-06-20 08:00 am W 4.1 6.0----30.05+0.02 63.1 52.0----
2024-06-20 07:54 amWNW 4.1 6.0----30.05- 63.0 52.0----
2024-06-20 07:48 amWNW 2.9 6.0----30.05- 62.4 52.0----
2024-06-20 07:42 am W 1.0 5.1----30.05- 61.5 52.0----
2024-06-20 07:36 am W 2.9 5.1----30.05- 60.8 52.0----
2024-06-20 07:30 am W 2.9 6.0----30.05- 60.6 52.0----
2024-06-20 07:24 amWNW 5.1 7.0----30.05- 59.9 52.0----
2024-06-20 07:18 amWNW 1.9 7.0----30.05-- 52.0----
2024-06-20 07:12 am W 5.1 9.9----30.04- 59.0 52.0----
2024-06-20 07:06 am W 4.1 8.0----30.05- 58.8 52.0----
2024-06-20 07:00 amWNW 5.1 8.9----30.04+0.03 58.5 52.0----
2024-06-20 06:54 am W 5.1 8.9----30.04- 58.1 52.0----
2024-06-20 06:48 amWNW 5.1 8.0----30.04- 57.7 52.0----
2024-06-20 06:42 amWNW 7.0 11.1----30.04- 57.6 52.0----
2024-06-20 06:36 amWNW 6.0 8.9----30.04- 57.4 52.0----
2024-06-20 06:30 amWNW 6.0 8.9----30.04- 57.4 52.0----
2024-06-20 06:24 amWNW 6.0 9.9----30.04- 57.2 52.0----
2024-06-20 06:18 am W 7.0 8.9----30.04- 57.0 52.0----
2024-06-20 06:12 am W 5.1 7.0----30.04- 56.7 52.0----
2024-06-20 06:06 amWSW 1.9 5.1----30.04- 56.1 51.8----
2024-06-20 06:00 am SW 1.0 2.9----30.04+0.03 56.1 51.8----
2024-06-20 05:54 am- 0.0 2.9----30.04- 55.9 51.8----
2024-06-20 05:48 am- 0.0 4.1----30.04-- 51.8----
2024-06-20 05:42 am- 0.0 2.9----30.04- 56.1 51.8----
2024-06-20 05:36 am- 0.0 2.9----30.04- 55.8 51.8----
2024-06-20 05:30 amWNW 1.9 2.9----30.03- 55.6 51.8----
2024-06-20 05:24 amNNE 1.9 2.9----30.03- 55.8 51.8----
2024-06-20 05:18 am N 1.9 2.9----30.03- 55.8 51.8----
2024-06-20 05:12 amNNW 1.9 4.1----30.03- 56.3 51.8----
2024-06-20 05:06 amWNW 2.9 5.1----30.03- 56.7 51.8----
2024-06-20 05:00 am NW 2.9 4.1----30.03+0.02 56.1 51.8----
2024-06-20 04:54 am- 0.0 2.9----30.03- 56.7 51.8----
2024-06-20 04:48 am SW 1.9 4.1----30.02-- 51.8----
2024-06-20 04:42 amWSW 1.9 4.1----30.02- 57.0 51.6----
2024-06-20 04:36 amWSW 5.1 8.0----30.02- 57.0 51.6----
2024-06-20 04:30 am W 6.0 11.1----30.02- 57.0 51.6----
2024-06-20 04:24 am W 8.0 11.1----30.01- 56.8 51.6----
2024-06-20 04:18 am W 8.0 9.9----30.01- 56.7 51.6----
2024-06-20 04:12 am W 8.0 11.1----30.01- 56.7 51.6----
2024-06-20 04:06 am W 8.0 11.1----30.02- 56.5 51.8----
2024-06-20 04:00 am W 8.0 11.1----30.02+0.01 56.3 51.8----
2024-06-20 03:54 am W 7.0 11.1----30.02- 56.3 51.8----
2024-06-20 03:48 am W 7.0 9.9----30.01- 56.1 51.8----
2024-06-20 03:42 am W 6.0 11.1----30.01- 56.1 51.8----
2024-06-20 03:36 am W 8.0 12.0----30.01- 56.1 51.8----
2024-06-20 03:30 am W 8.9 12.0----30.02- 55.9 51.8----
2024-06-20 03:24 am W 8.0 12.0----30.01- 55.6 51.8----
2024-06-20 03:18 am W 8.0 12.0----30.01-- 51.8----
2024-06-20 03:12 am W 8.0 12.0----30.01- 55.4 51.8----
2024-06-20 03:06 am W 8.0 13.0----30.01- 55.2 51.8----
2024-06-20 03:00 am W 9.9 12.0----30.01+0.00 55.0 51.8----
2024-06-20 02:54 am W 9.9 13.0----30.01- 54.9 51.8----
2024-06-20 02:48 am W 9.9 13.0----30.01- 54.9 51.8----
2024-06-20 02:42 amWNW 9.9 12.0----30.01- 54.9 51.8----
2024-06-20 02:36 am W 7.0 13.0----30.01- 54.9 51.8----
2024-06-20 02:30 am W 8.0 11.1----30.01- 55.2 51.6----
2024-06-20 02:24 am W 7.0 12.0----30.01- 55.2 51.6----
2024-06-20 02:18 am W 5.1 9.9----30.01- 55.4 51.6----
2024-06-20 02:12 amWNW 8.0 11.1----30.01- 55.6 51.6----
2024-06-20 02:06 amWNW 5.1 8.0----30.01- 55.9 51.6----
2024-06-20 02:00 amWNW 5.1 8.0----30.01+0.00 56.3 51.6----
2024-06-20 01:54 amWNW 2.9 5.1----30.01- 57.0 51.4----
2024-06-20 01:48 amNNW 1.9 4.1----30.01-- 51.4----
2024-06-20 01:42 am- 0.0 4.1----30.01- 57.9 51.4----
2024-06-20 01:36 am S 1.9 4.1----30.01- 58.6 51.4----
2024-06-20 01:30 amSSE 1.9 4.1----30.01- 59.4 51.4----
2024-06-20 01:24 am W 1.0 8.0----30.01- 59.9 51.4----
2024-06-20 01:18 am W 5.1 9.9----30.00-- 51.4----
2024-06-20 01:12 am W 6.0 9.9----30.00- 60.8 51.4----
2024-06-20 01:06 am W 8.0 12.0----30.00- 61.3 51.4----
2024-06-20 01:00 am W 7.0 11.1----30.00+0.00 61.5 51.4----
2024-06-20 12:54 am W 7.0 11.1----30.00- 61.3 51.4----